| time (UTC) | temp C | wind direction | speed KPH | gust KPH | rain 1hr cm | rain 24hr cm | rain mn cm | humidity % | barometer mb |
| 20260506051034 | 10 | 17 | 30.6 | 37.0 | 0.00 | 0.00 | 0.00 | 83 | 1010.9 |
| 20260506050524 | 10 | 31 | 32.2 | 37.0 | 0.00 | 0.00 | 0.00 | 82 | 1010.9 |
| 20260506045055 | 10 | 5 | 30.6 | 35.4 | 0.00 | 0.00 | 0.00 | 81 | 1010.8 |
| 20260506044638 | 10 | 26 | 29.0 | 33.8 | 0.00 | 0.00 | 0.00 | 80 | 1010.7 |
| 20260506044036 | 10 | 30 | 27.4 | 33.8 | 0.00 | 0.00 | 0.00 | 80 | 1010.7 |
| 20260506043514 | 10 | 18 | 29.0 | 33.8 | 0.00 | 0.00 | 0.00 | 80 | 1010.6 |
| 20260506043004 | 11 | 26 | 29.0 | 32.2 | 0.00 | 0.00 | 0.00 | 80 | 1010.6 |
| 20260506042556 | 11 | 28 | 25.7 | 33.8 | 0.00 | 0.00 | 0.00 | 79 | 1010.6 |
| 20260506042046 | 11 | 41 | 29.0 | 33.8 | 0.00 | 0.00 | 0.00 | 80 | 1010.6 |
| 20260506041536 | 11 | 34 | 25.7 | 32.2 | 0.00 | 0.00 | 0.00 | 80 | 1010.5 |
| 20260506041030 | 11 | 41 | 27.4 | 32.2 | 0.00 | 0.00 | 0.00 | 79 | 1010.6 |
| 20260506040515 | 11 | 43 | 27.4 | 32.2 | 0.00 | 0.00 | 0.00 | 80 | 1010.5 |
| 20260506040006 | 11 | 33 | 24.1 | 30.6 | 0.00 | 0.00 | 0.00 | 80 | 1010.6 |
| 20260506035558 | 11 | 38 | 25.7 | 30.6 | 0.00 | 0.00 | 0.00 | 80 | 1010.6 |
| 20260506035047 | 11 | 42 | 25.7 | 29.0 | 0.00 | 0.00 | 0.00 | 80 | 1010.5 |
| 20260506034602 | 11 | 30 | 24.1 | 30.6 | 0.00 | 0.00 | 0.00 | 80 | 1010.6 |
| 20260506034015 | 11 | 28 | 25.7 | 30.6 | 0.00 | 0.00 | 0.00 | 80 | 1010.6 |
| 20260506033505 | 11 | 32 | 25.7 | 30.6 | 0.00 | 0.00 | 0.00 | 80 | 1010.6 |
| 20260506033104 | 11 | 35 | 24.1 | 29.0 | 0.00 | 0.00 | 0.00 | 80 | 1010.6 |
| 20260506032548 | 11 | 36 | 25.7 | 29.0 | 0.00 | 0.00 | 0.00 | 80 | 1010.6 |
| 20260506032037 | 11 | 43 | 25.7 | 29.0 | 0.00 | 0.00 | 0.00 | 79 | 1010.6 |
| 20260506031528 | 11 | 45 | 24.1 | 27.4 | 0.00 | 0.00 | 0.00 | 79 | 1010.6 |
| 20260506031016 | 11 | 38 | 22.5 | 27.4 | 0.00 | 0.00 | 0.00 | 79 | 1010.6 |
| 20260506030507 | 11 | 34 | 22.5 | 27.4 | 0.00 | 0.00 | 0.00 | 79 | 1010.6 |
| 20260506030059 | 11 | 41 | 24.1 | 32.2 | 0.00 | 0.00 | 0.00 | 78 | 1010.6 |
| 20260506025548 | 11 | 57 | 17.7 | 32.2 | 0.00 | 0.00 | 0.00 | 77 | 1010.7 |
| 20260506025041 | 12 | 66 | 19.3 | 32.2 | 0.00 | 0.00 | 0.00 | 77 | 1010.6 |
| 20260506024527 | 12 | 84 | 25.7 | 32.2 | 0.00 | 0.00 | 0.00 | 77 | 1010.6 |
| 20260506024006 | 12 | 84 | 27.4 | 32.2 | 0.00 | 0.00 | 0.00 | 76 | 1010.5 |
| 20260506023555 | 12 | 78 | 27.4 | 32.2 | 0.00 | 0.00 | 0.00 | 76 | 1010.5 |
| 20260506023105 | 12 | 80 | 25.7 | 29.0 | 0.00 | 0.00 | 0.00 | 77 | 1010.5 |
| 20260506022535 | 12 | 88 | 19.3 | 25.7 | 0.00 | 0.00 | 0.00 | 77 | 1010.6 |
| 20260506022026 | 12 | 82 | 19.3 | 24.1 | 0.00 | 0.00 | 0.00 | 78 | 1010.6 |
| 20260506021516 | 12 | 80 | 17.7 | 24.1 | 0.00 | 0.00 | 0.00 | 78 | 1010.6 |
| 20260506021005 | 12 | 56 | 19.3 | 25.7 | 0.00 | 0.00 | 0.00 | 78 | 1010.5 |
| 20260506020557 | 12 | 55 | 19.3 | 25.7 | 0.00 | 0.00 | 0.00 | 78 | 1010.5 |
| 20260506020048 | 12 | 52 | 20.9 | 25.7 | 0.00 | 0.00 | 0.00 | 78 | 1010.5 |
| 20260506015538 | 12 | 55 | 20.9 | 25.7 | 0.00 | 0.00 | 0.00 | 78 | 1010.5 |
| 20260506015031 | 12 | 51 | 20.9 | 25.7 | 0.00 | 0.00 | 0.00 | 78 | 1010.4 |
| 20260506014525 | 12 | 40 | 20.9 | 27.4 | 0.00 | 0.00 | 0.00 | 78 | 1010.4 |
| 20260506014109 | 12 | 29 | 22.5 | 27.4 | 0.00 | 0.00 | 0.00 | 78 | 1010.4 |
| 20260506013548 | 12 | 42 | 22.5 | 27.4 | 0.00 | 0.00 | 0.00 | 77 | 1010.5 |
| 20260506013041 | 12 | 23 | 20.9 | 27.4 | 0.00 | 0.00 | 0.00 | 77 | 1010.5 |
| 20260506012529 | 12 | 28 | 22.5 | 27.4 | 0.00 | 0.00 | 0.00 | 77 | 1010.5 |
| 20260506012017 | 12 | 16 | 24.1 | 29.0 | 0.00 | 0.00 | 0.00 | 77 | 1010.5 |
| 20260506011513 | 12 | 18 | 24.1 | 29.0 | 0.00 | 0.00 | 0.00 | 76 | 1010.5 |
| 20260506011100 | 12 | 12 | 24.1 | 32.2 | 0.00 | 0.00 | 0.00 | 76 | 1010.5 |
| 20260506010550 | 12 | 11 | 25.7 | 32.2 | 0.00 | 0.00 | 0.00 | 76 | 1010.4 |
| 20260506010050 | 12 | 16 | 25.7 | 33.8 | 0.00 | 0.00 | 0.00 | 76 | 1010.5 |
| 20260506005529 | 12 | 19 | 24.1 | 30.6 | 0.00 | 0.00 | 0.00 | 76 | 1010.4 |
| 20260506005019 | 12 | 360 | 25.7 | 30.6 | 0.00 | 0.00 | 0.00 | 76 | 1010.4 |
| 20260506004523 | 12 | 15 | 22.5 | 29.0 | 0.00 | 0.00 | 0.00 | 75 | 1010.5 |
| 20260506004101 | 12 | 9 | 20.9 | 29.0 | 0.00 | 0.00 | 0.00 | 75 | 1010.5 |
| 20260506003540 | 12 | 5 | 20.9 | 27.4 | 0.00 | 0.00 | 0.00 | 75 | 1010.5 |
| 20260506003041 | 12 | 5 | 20.9 | 27.4 | 0.00 | 0.00 | 0.00 | 75 | 1010.5 |
| 20260506002520 | 12 | 350 | 22.5 | 27.4 | 0.00 | 0.00 | 0.00 | 75 | 1010.5 |
| 20260506002011 | 12 | 350 | 20.9 | 27.4 | 0.00 | 0.00 | 0.00 | 75 | 1010.5 |
| 20260506001602 | 12 | 355 | 20.9 | 27.4 | 0.00 | 0.00 | 0.00 | 75 | 1010.5 |
| 20260506001052 | 12 | 360 | 22.5 | 29.0 | 0.00 | 0.00 | 0.00 | 75 | 1010.5 |
| 20260506000541 | 12 | 345 | 24.1 | 27.4 | 0.00 | 0.00 | 0.00 | 75 | 1010.5 |
| 20260506000031 | 12 | 355 | 22.5 | 29.0 | 0.00 | 0.00 | 0.00 | 75 | 1010.5 |
| 20260505235520 | 12 | 350 | 24.1 | 29.0 | 0.00 | 0.00 | 0.00 | 74 | 1010.4 |
| 20260505235010 | 12 | 349 | 22.5 | 30.6 | 0.00 | 0.00 | 0.00 | 74 | 1010.5 |
| 20260505234637 | 12 | 355 | 24.1 | 30.6 | 0.00 | 0.00 | 0.00 | 74 | 1010.4 |
| 20260505234052 | 12 | 350 | 24.1 | 32.2 | 0.00 | 0.00 | 0.00 | 74 | 1010.4 |
| 20260505233532 | 12 | 348 | 27.4 | 32.2 | 0.00 | 0.00 | 0.00 | 74 | 1010.4 |
| 20260505233020 | 12 | 355 | 27.4 | 33.8 | 0.00 | 0.00 | 0.00 | 74 | 1010.5 |
| 20260505232510 | 12 | 343 | 27.4 | 32.2 | 0.00 | 0.00 | 0.00 | 73 | 1010.5 |
| 20260505232103 | 12 | 346 | 27.4 | 32.2 | 0.00 | 0.00 | 0.00 | 73 | 1010.4 |
| 20260505231553 | 12 | 355 | 25.7 | 32.2 | 0.00 | 0.00 | 0.00 | 74 | 1010.4 |
| 20260505231042 | 12 | 338 | 27.4 | 32.2 | 0.00 | 0.00 | 0.00 | 73 | 1010.5 |
| 20260505230533 | 12 | 340 | 25.7 | 33.8 | 0.00 | 0.00 | 0.00 | 73 | 1010.5 |
| 20260505230025 | 12 | 338 | 27.4 | 37.0 | 0.00 | 0.00 | 0.00 | 73 | 1010.6 |
| 20260505225514 | 12 | 335 | 29.0 | 37.0 | 0.00 | 0.00 | 0.00 | 72 | 1010.5 |
| 20260505225002 | 12 | 343 | 27.4 | 32.2 | 0.00 | 0.00 | 0.00 | 73 | 1010.5 |
| 20260505224554 | 12 | 346 | 27.4 | 33.8 | 0.00 | 0.00 | 0.00 | 72 | 1010.6 |
| 20260505224043 | 12 | 338 | 27.4 | 33.8 | 0.00 | 0.00 | 0.00 | 72 | 1010.5 |
| 20260505223521 | 12 | 346 | 27.4 | 32.2 | 0.00 | 0.00 | 0.00 | 72 | 1010.5 |
| 20260505223011 | 12 | 333 | 27.4 | 32.2 | 0.00 | 0.00 | 0.00 | 72 | 1010.5 |
| 20260505222503 | 12 | 338 | 27.4 | 32.2 | 0.00 | 0.00 | 0.00 | 72 | 1010.6 |
| 20260505222050 | 12 | 340 | 27.4 | 32.2 | 0.00 | 0.00 | 0.00 | 72 | 1010.5 |
| 20260505221540 | 12 | 339 | 27.4 | 30.6 | 0.00 | 0.00 | 0.00 | 72 | 1010.6 |
| 20260505221030 | 12 | 334 | 24.1 | 30.6 | 0.00 | 0.00 | 0.00 | 71 | 1010.6 |
| 20260505220520 | 12 | 339 | 25.7 | 30.6 | 0.00 | 0.00 | 0.00 | 71 | 1010.6 |
| 20260505220021 | 12 | 333 | 25.7 | 29.0 | 0.00 | 0.00 | 0.00 | 71 | 1010.7 |
| 20260505215602 | 12 | 338 | 25.7 | 29.0 | 0.00 | 0.00 | 0.00 | 71 | 1010.7 |
| 20260505215052 | 12 | 333 | 24.1 | 27.4 | 0.00 | 0.00 | 0.00 | 71 | 1010.6 |
| 20260505214542 | 13 | 332 | 24.1 | 29.0 | 0.00 | 0.00 | 0.00 | 70 | 1010.6 |
| 20260505214035 | 13 | 330 | 22.5 | 25.7 | 0.00 | 0.00 | 0.00 | 69 | 1010.6 |
| 20260505213510 | 13 | 336 | 20.9 | 27.4 | 0.00 | 0.00 | 0.00 | 70 | 1010.7 |
| 20260505213105 | 13 | 342 | 22.5 | 30.6 | 0.00 | 0.00 | 0.00 | 69 | 1010.7 |
| 20260505212552 | 13 | 355 | 25.7 | 32.2 | 0.00 | 0.00 | 0.00 | 67 | 1010.7 |
| 20260505212042 | 13 | 344 | 25.7 | 32.2 | 0.00 | 0.00 | 0.00 | 68 | 1010.6 |
| 20260505211537 | 13 | 344 | 25.7 | 30.6 | 0.00 | 0.00 | 0.00 | 69 | 1010.6 |
| 20260505211022 | 13 | 342 | 20.9 | 25.7 | 0.00 | 0.00 | 0.00 | 69 | 1010.6 |
| 20260505210512 | 13 | 346 | 19.3 | 25.7 | 0.00 | 0.00 | 0.00 | 69 | 1010.6 |
| 20260505210002 | 13 | 350 | 19.3 | 24.1 | 0.00 | 0.00 | 0.00 | 68 | 1010.6 |
| 20260505205556 | 13 | 5 | 19.3 | 27.4 | 0.00 | 0.00 | 0.00 | 68 | 1010.6 |
| 20260505205043 | 13 | 355 | 22.5 | 27.4 | 0.00 | 0.00 | 0.00 | 68 | 1010.5 |
| 20260505204535 | 13 | 355 | 20.9 | 25.7 | 0.00 | 0.00 | 0.00 | 67 | 1010.5 |
| 20260505204012 | 13 | 5 | 19.3 | 25.7 | 0.00 | 0.00 | 0.00 | 67 | 1010.6 |
| 20260505203502 | 13 | 355 | 19.3 | 27.4 | 0.00 | 0.00 | 0.00 | 67 | 1010.5 |
| 20260505203055 | 13 | 360 | 22.5 | 29.0 | 0.00 | 0.00 | 0.00 | 67 | 1010.5 |
| 20260505202543 | 13 | 346 | 24.1 | 29.0 | 0.00 | 0.00 | 0.00 | 67 | 1010.4 |
| 20260505202034 | 13 | 355 | 20.9 | 30.6 | 0.00 | 0.00 | 0.00 | 66 | 1010.4 |
| 20260505201525 | 13 | 355 | 24.1 | 32.2 | 0.00 | 0.00 | 0.00 | 67 | 1010.4 |
| 20260505201013 | 13 | 360 | 27.4 | 32.2 | 0.00 | 0.00 | 0.00 | 66 | 1010.4 |
| 20260505200503 | 13 | 360 | 25.7 | 32.2 | 0.00 | 0.00 | 0.00 | 67 | 1010.4 |
| 20260505200057 | 14 | 360 | 25.7 | 32.2 | 0.00 | 0.00 | 0.00 | 66 | 1010.3 |
| 20260505195543 | 14 | 360 | 25.7 | 30.6 | 0.00 | 0.00 | 0.00 | 66 | 1010.2 |
| 20260505195034 | 14 | 360 | 24.1 | 37.0 | 0.00 | 0.00 | 0.00 | 66 | 1010.2 |
| 20260505194532 | 14 | 5 | 27.4 | 37.0 | 0.00 | 0.00 | 0.00 | 65 | 1010.2 |
| 20260505194004 | 14 | 5 | 30.6 | 32.2 | 0.00 | 0.00 | 0.00 | 66 | 1010.1 |
| 20260505193555 | 14 | 10 | 22.5 | 27.4 | 0.00 | 0.00 | 0.00 | 67 | 1010.1 |
| 20260505193048 | 14 | 360 | 19.3 | 24.1 | 0.00 | 0.00 | 0.00 | 67 | 1010.1 |
| 20260505192534 | 14 | 360 | 19.3 | 24.1 | 0.00 | 0.00 | 0.00 | 66 | 1010.1 |
| 20260505192024 | 14 | 355 | 16.1 | 20.9 | 0.00 | 0.00 | 0.00 | 68 | 1010.1 |
| 20260505191514 | 14 | 355 | 17.7 | 25.7 | 0.00 | 0.00 | 0.00 | 67 | 1010.1 |
| 20260505191004 | 14 | 360 | 20.9 | 29.0 | 0.00 | 0.00 | 0.00 | 66 | 1010.0 |
| 20260505190556 | 14 | 9 | 22.5 | 29.0 | 0.00 | 0.00 | 0.00 | 66 | 1009.9 |
| 20260505190046 | 14 | 5 | 20.9 | 27.4 | 0.00 | 0.00 | 0.00 | 69 | 1009.9 |
| 20260505185536 | 14 | 5 | 22.5 | 30.6 | 0.00 | 0.00 | 0.00 | 67 | 1009.9 |
| 20260505185026 | 14 | 360 | 24.1 | 30.6 | 0.00 | 0.00 | 0.00 | 66 | 1009.8 |
| 20260505184516 | 14 | 360 | 24.1 | 27.4 | 0.00 | 0.00 | 0.00 | 66 | 1009.8 |
| 20260505184108 | 14 | 5 | 24.1 | 27.4 | 0.00 | 0.00 | 0.00 | 66 | 1009.8 |
| 20260505183548 | 14 | 16 | 20.9 | 25.7 | 0.00 | 0.00 | 0.00 | 69 | 1009.8 |
| 20260505183036 | 14 | 10 | 16.1 | 20.9 | 0.00 | 0.00 | 0.00 | 70 | 1009.9 |
| 20260505182526 | 14 | 15 | 17.7 | 20.9 | 0.00 | 0.00 | 0.00 | 68 | 1009.8 |
| 20260505182018 | 14 | 360 | 16.1 | 22.5 | 0.00 | 0.00 | 0.00 | 67 | 1009.8 |
| 20260505181506 | 14 | 355 | 17.7 | 22.5 | 0.00 | 0.00 | 0.00 | 66 | 1009.7 |
| 20260505181100 | 14 | 5 | 17.7 | 22.5 | 0.00 | 0.00 | 0.00 | 67 | 1009.7 |
| 20260505180548 | 14 | 360 | 17.7 | 22.5 | 0.00 | 0.00 | 0.00 | 67 | 1009.7 |
| 20260505180048 | 14 | 5 | 17.7 | 22.5 | 0.00 | 0.00 | 0.00 | 68 | 1009.8 |
| 20260505175528 | 14 | 5 | 17.7 | 20.9 | 0.00 | 0.00 | 0.00 | 69 | 1009.7 |
| 20260505175018 | 14 | 11 | 17.7 | 22.5 | 0.00 | 0.00 | 0.00 | 69 | 1009.7 |
| 20260505174515 | 14 | 13 | 19.3 | 20.9 | 0.00 | 0.00 | 0.00 | 69 | 1009.8 |
| 20260505174059 | 14 | 9 | 17.7 | 20.9 | 0.00 | 0.00 | 0.00 | 69 | 1009.8 |
| 20260505173538 | 14 | 15 | 17.7 | 24.1 | 0.00 | 0.00 | 0.00 | 69 | 1009.8 |
| 20260505173029 | 14 | 5 | 19.3 | 24.1 | 0.00 | 0.00 | 0.00 | 69 | 1009.8 |
| 20260505172518 | 14 | 360 | 17.7 | 22.5 | 0.00 | 0.00 | 0.00 | 69 | 1009.8 |
| 20260505172008 | 14 | 5 | 17.7 | 22.5 | 0.00 | 0.00 | 0.00 | 68 | 1009.9 |
| 20260505171600 | 14 | 9 | 17.7 | 20.9 | 0.00 | 0.00 | 0.00 | 70 | 1009.9 |
| 20260505171050 | 14 | 5 | 17.7 | 20.9 | 0.00 | 0.00 | 0.00 | 71 | 1009.9 |
| 20260505170539 | 14 | 15 | 16.1 | 19.3 | 0.00 | 0.00 | 0.00 | 73 | 1010.0 |
| 20260505170032 | 13 | 12 | 11.3 | 14.5 | 0.00 | 0.00 | 0.00 | 75 | 1010.0 |
| 20260505165523 | 14 | 11 | 11.3 | 14.5 | 0.00 | 0.00 | 0.00 | 75 | 1010.1 |
| 20260505165010 | 14 | 19 | 12.9 | 14.5 | 0.00 | 0.00 | 0.00 | 74 | 1010.1 |
| 20260505164602 | 14 | 19 | 12.9 | 16.1 | 0.00 | 0.00 | 0.00 | 74 | 1010.0 |
| 20260505164055 | 14 | 19 | 12.9 | 17.7 | 0.00 | 0.00 | 0.00 | 74 | 1010.1 |
| 20260505163531 | 14 | 22 | 14.5 | 17.7 | 0.00 | 0.00 | 0.00 | 74 | 1010.0 |
| 20260505163022 | 14 | 20 | 14.5 | 19.3 | 0.00 | 0.00 | 0.00 | 74 | 1010.0 |
| 20260505162510 | 14 | 17 | 17.7 | 20.9 | 0.00 | 0.00 | 0.00 | 73 | 1010.0 |
| 20260505162103 | 14 | 20 | 17.7 | 20.9 | 0.00 | 0.00 | 0.00 | 72 | 1010.0 |
| 20260505161601 | 14 | 32 | 17.7 | 22.5 | 0.00 | 0.00 | 0.00 | 70 | 1010.0 |
| 20260505161042 | 14 | 11 | 17.7 | 25.7 | 0.00 | 0.00 | 0.00 | 67 | 1010.0 |
| 20260505160533 | 14 | 10 | 22.5 | 25.7 | 0.00 | 0.00 | 0.00 | 67 | 1009.9 |
| 20260505153011 | 14 | 5 | 16.1 | 22.5 | 0.00 | 0.00 | 0.00 | 65 | 1010.1 |
| 20260505152500 | 14 | 5 | 17.7 | 20.9 | 0.00 | 0.00 | 0.00 | 67 | 1010.1 |
| 20260505152052 | 14 | 13 | 17.7 | 24.1 | 0.00 | 0.00 | 0.00 | 68 | 1010.2 |
| 20260505151549 | 14 | 9 | 17.7 | 29.0 | 0.00 | 0.00 | 0.00 | 66 | 1010.2 |
| 20260505151035 | 14 | 9 | 25.7 | 29.0 | 0.00 | 0.00 | 0.00 | 65 | 1010.1 |
| 20260505150522 | 14 | 11 | 24.1 | 29.0 | 0.00 | 0.00 | 0.00 | 66 | 1010.1 |
| 20260505140513 | 15 | 13 | 30.6 | 35.4 | 0.00 | 0.00 | 0.00 | 67 | 1010.1 |
| 20260505125034 | 14 | 90 | 6.4 | 12.9 | 0.00 | 0.00 | 0.00 | 74 | 1010.5 |
| 20260505124524 | 14 | 81 | 8.0 | 14.5 | 0.00 | 0.00 | 0.00 | 75 | 1010.6 |
| 20260505124003 | 14 | 81 | 12.9 | 14.5 | 0.00 | 0.00 | 0.00 | 73 | 1010.6 |
| 20260505123556 | 14 | 51 | 9.7 | 16.1 | 0.00 | 0.00 | 0.00 | 72 | 1010.7 |
| 20260505123103 | 14 | 46 | 12.9 | 16.1 | 0.00 | 0.00 | 0.00 | 72 | 1010.6 |
| 20260505122536 | 14 | 40 | 11.3 | 16.1 | 0.00 | 0.00 | 0.00 | 74 | 1010.6 |
| 20260505122025 | 14 | 38 | 12.9 | 20.9 | 0.00 | 0.00 | 0.00 | 73 | 1010.6 |
| 20260505121516 | 14 | 32 | 14.5 | 20.9 | 0.00 | 0.00 | 0.00 | 73 | 1010.6 |
| 20260505121005 | 14 | 19 | 17.7 | 24.1 | 0.00 | 0.00 | 0.00 | 73 | 1010.6 |
| 20260505120557 | 14 | 23 | 19.3 | 24.1 | 0.00 | 0.00 | 0.00 | 74 | 1010.6 |
| 20260505120047 | 13 | 30 | 17.7 | 22.5 | 0.00 | 0.00 | 0.00 | 76 | 1010.6 |
| 20260505115535 | 13 | 38 | 16.1 | 20.9 | 0.00 | 0.00 | 0.00 | 76 | 1010.7 |
| 20260505115025 | 13 | 34 | 14.5 | 22.5 | 0.00 | 0.00 | 0.00 | 75 | 1010.8 |
| 20260505114515 | 13 | 32 | 19.3 | 25.7 | 0.00 | 0.00 | 0.00 | 75 | 1010.8 |
| 20260505114107 | 13 | 40 | 20.9 | 27.4 | 0.00 | 0.00 | 0.00 | 75 | 1011.0 |
| 20260505113548 | 13 | 32 | 20.9 | 27.4 | 0.00 | 0.00 | 0.00 | 76 | 1011.0 |
| 20260505113039 | 13 | 26 | 20.9 | 29.0 | 0.00 | 0.00 | 0.00 | 75 | 1011.0 |
| 20260505112529 | 13 | 36 | 24.1 | 30.6 | 0.00 | 0.00 | 0.00 | 75 | 1011.0 |
| 20260505112020 | 13 | 26 | 24.1 | 30.6 | 0.00 | 0.00 | 0.00 | 76 | 1010.9 |
| 20260505111506 | 13 | 27 | 27.4 | 30.6 | 0.00 | 0.00 | 0.00 | 76 | 1011.1 |
| 20260505111057 | 13 | 33 | 24.1 | 29.0 | 0.00 | 0.00 | 0.00 | 77 | 1011.0 |
| 20260505110547 | 13 | 40 | 24.1 | 29.0 | 0.00 | 0.00 | 0.00 | 76 | 1011.0 |
| 20260505102006 | 13 | 30 | 20.9 | 27.4 | 0.00 | 0.00 | 0.00 | 79 | 1011.4 |
| 20260505101558 | 13 | 39 | 24.1 | 27.4 | 0.00 | 0.00 | 0.00 | 79 | 1011.4 |
| 20260505101048 | 13 | 41 | 20.9 | 24.1 | 0.00 | 0.00 | 0.00 | 80 | 1011.5 |
| 20260505100538 | 13 | 36 | 22.5 | 24.1 | 0.00 | 0.00 | 0.00 | 80 | 1011.4 |
| 20260505100032 | 13 | 38 | 19.3 | 24.1 | 0.00 | 0.00 | 0.00 | 80 | 1011.4 |
| 20260505095515 | 12 | 36 | 20.9 | 27.4 | 0.00 | 0.00 | 0.00 | 80 | 1011.5 |
| 20260505095005 | 12 | 39 | 20.9 | 27.4 | 0.00 | 0.00 | 0.00 | 80 | 1011.5 |
| 20260505094557 | 12 | 43 | 22.5 | 27.4 | 0.00 | 0.00 | 0.00 | 80 | 1011.5 |
| 20260505094047 | 12 | 35 | 24.1 | 30.6 | 0.00 | 0.00 | 0.00 | 80 | 1011.7 |
| 20260505093526 | 12 | 26 | 25.7 | 30.6 | 0.00 | 0.00 | 0.00 | 80 | 1011.5 |
| 20260505093016 | 12 | 27 | 24.1 | 29.0 | 0.00 | 0.00 | 0.00 | 80 | 1011.5 |
| 20260505092508 | 12 | 42 | 22.5 | 27.4 | 0.00 | 0.00 | 0.00 | 80 | 1011.5 |
| 20260505092058 | 12 | 26 | 24.1 | 29.0 | 0.00 | 0.00 | 0.00 | 80 | 1011.5 |
| 20260505091547 | 12 | 40 | 24.1 | 29.0 | 0.00 | 0.00 | 0.00 | 81 | 1011.6 |
| 20260505091037 | 12 | 31 | 24.1 | 30.6 | 0.00 | 0.00 | 0.00 | 81 | 1011.6 |
| 20260505090527 | 12 | 31 | 25.7 | 30.6 | 0.00 | 0.00 | 0.00 | 81 | 1011.7 |
| 20260505090017 | 12 | 22 | 25.7 | 30.6 | 0.00 | 0.00 | 0.00 | 81 | 1011.5 |
| 20260505085507 | 12 | 40 | 25.7 | 32.2 | 0.00 | 0.00 | 0.00 | 81 | 1011.5 |
| 20260505085059 | 12 | 33 | 24.1 | 35.4 | 0.00 | 0.00 | 0.00 | 81 | 1011.6 |
| 20260505084549 | 12 | 22 | 27.4 | 33.8 | 0.00 | 0.00 | 0.00 | 81 | 1011.5 |
| 20260505084038 | 12 | 29 | 30.6 | 33.8 | 0.00 | 0.00 | 0.00 | 81 | 1011.6 |
| 20260505083517 | 12 | 24 | 30.6 | 33.8 | 0.00 | 0.00 | 0.00 | 80 | 1011.6 |
| 20260505083013 | 12 | 22 | 29.0 | 33.8 | 0.00 | 0.00 | 0.00 | 81 | 1011.5 |
| 20260505082559 | 12 | 22 | 29.0 | 33.8 | 0.00 | 0.00 | 0.00 | 80 | 1011.5 |
| 20260505082049 | 12 | 15 | 25.7 | 33.8 | 0.00 | 0.00 | 0.00 | 80 | 1011.5 |
| 20260505081546 | 12 | 28 | 30.6 | 35.4 | 0.00 | 0.00 | 0.00 | 81 | 1011.4 |
| 20260505081029 | 12 | 5 | 29.0 | 37.0 | 0.00 | 0.00 | 0.00 | 81 | 1011.5 |
| 20260505080519 | 12 | 12 | 32.2 | 37.0 | 0.00 | 0.00 | 0.00 | 81 | 1011.4 |
| 20260505080025 | 12 | 13 | 29.0 | 35.4 | 0.00 | 0.00 | 0.00 | 81 | 1011.4 |
| 20260505075557 | 12 | 5 | 27.4 | 32.2 | 0.00 | 0.00 | 0.00 | 83 | 1011.4 |
| 20260505075047 | 12 | 22 | 25.7 | 29.0 | 0.00 | 0.00 | 0.00 | 83 | 1011.4 |
| 20260505074542 | 12 | 14 | 25.7 | 29.0 | 0.00 | 0.00 | 0.00 | 83 | 1011.4 |
| 20260505074027 | 12 | 19 | 25.7 | 33.8 | 0.00 | 0.00 | 0.00 | 84 | 1011.4 |
| 20260505073506 | 12 | 14 | 29.0 | 32.2 | 0.00 | 0.00 | 0.00 | 84 | 1011.4 |
| 20260505073106 | 12 | 13 | 27.4 | 32.2 | 0.00 | 0.00 | 0.00 | 84 | 1011.3 |
| 20260505072547 | 11 | 19 | 27.4 | 30.6 | 0.00 | 0.00 | 0.00 | 84 | 1011.3 |
| 20260505072037 | 11 | 20 | 24.1 | 29.0 | 0.00 | 0.00 | 0.00 | 86 | 1011.4 |
| 20260505071534 | 11 | 24 | 22.5 | 25.7 | 0.00 | 0.00 | 0.00 | 87 | 1011.4 |
| 20260505071018 | 11 | 30 | 20.9 | 27.4 | 0.00 | 0.00 | 0.00 | 87 | 1011.4 |
| 20260505070510 | 11 | 19 | 22.5 | 27.4 | 0.00 | 0.00 | 0.00 | 88 | 1011.4 |
| 20260505070059 | 11 | 18 | 22.5 | 27.4 | 0.00 | 0.00 | 0.00 | 88 | 1011.5 |
| 20260505065549 | 11 | 13 | 22.5 | 27.4 | 0.00 | 0.00 | 0.00 | 88 | 1011.5 |
| 20260505065038 | 11 | 9 | 19.3 | 25.7 | 0.00 | 0.00 | 0.00 | 89 | 1011.5 |
| 20260505064547 | 11 | 23 | 20.9 | 25.7 | 0.00 | 0.00 | 0.00 | 89 | 1011.5 |
| 20260505064007 | 11 | 20 | 20.9 | 25.7 | 0.00 | 0.00 | 0.00 | 90 | 1011.6 |
| 20260505063550 | 11 | 22 | 20.9 | 25.7 | 0.00 | 0.00 | 0.00 | 89 | 1011.7 |
| 20260505063046 | 11 | 15 | 22.5 | 27.4 | 0.00 | 0.00 | 0.00 | 89 | 1011.7 |
| 20260505062530 | 11 | 5 | 24.1 | 27.4 | 0.00 | 0.00 | 0.00 | 89 | 1011.6 |
| 20260505062020 | 11 | 5 | 22.5 | 27.4 | 0.00 | 0.00 | 0.00 | 89 | 1011.6 |
| 20260505061514 | 11 | 12 | 22.5 | 32.2 | 0.00 | 0.00 | 0.00 | 89 | 1011.6 |
| 20260505061101 | 11 | 11 | 25.7 | 32.2 | 0.00 | 0.00 | 0.00 | 89 | 1011.6 |
| 20260505060551 | 11 | 16 | 25.7 | 29.0 | 0.00 | 0.00 | 0.00 | 89 | 1011.6 |
| 20260505060041 | 11 | 5 | 22.5 | 29.0 | 0.00 | 0.00 | 0.00 | 89 | 1011.7 |
| 20260505055531 | 11 | 14 | 22.5 | 30.6 | 0.00 | 0.00 | 0.00 | 89 | 1011.7 |
| 20260505055021 | 11 | 15 | 24.1 | 30.6 | 0.00 | 0.00 | 0.00 | 89 | 1011.6 |
| 20260505054511 | 11 | 21 | 25.7 | 30.6 | 0.00 | 0.00 | 0.00 | 90 | 1011.5 |
| 20260505054103 | 11 | 26 | 25.7 | 30.6 | 0.00 | 0.00 | 0.00 | 90 | 1011.4 |
| 20260505053541 | 11 | 24 | 25.7 | 29.0 | 0.00 | 0.00 | 0.00 | 89 | 1011.5 |
| 20260505053031 | 11 | 24 | 24.1 | 30.6 | 0.00 | 0.00 | 0.00 | 89 | 1011.5 |
| 20260505052521 | 11 | 10 | 25.7 | 30.6 | 0.00 | 0.00 | 0.00 | 89 | 1011.4 |
| 20260505052011 | 11 | 19 | 25.7 | 30.6 | 0.00 | 0.00 | 0.00 | 89 | 1011.4 |